MST,Max TemperatureF,Mean TemperatureF,Min TemperatureF,Max Dew PointF,MeanDew PointF,Min DewpointF,Max Humidity, Mean Humidity, Min Humidity, Max Sea Level PressureIn, Mean Sea Level PressureIn, Min Sea Level PressureIn, Max VisibilityMiles, Mean VisibilityMiles, Min VisibilityMiles, Max Wind SpeedMPH, Mean Wind SpeedMPH, Max Gust SpeedMPH,PrecipitationIn, CloudCover, Events, WindDirDegrees
2014-2-1,22,10,-3,17,11,-4,87,74,61,30.34,30.09,29.86,10,6,1,20,6,22,0.08,7,Snow,347
2014-2-2,28,10,-9,14,-1,-13,87,71,55,30.33,30.21,30.04,10,9,2,12,4,13,0.00,2,,358
2014-2-3,30,18,6,19,10,4,91,70,49,30.21,30.10,30.01,10,8,3,22,5,26,0.00,4,,84
2014-2-4,15,4,-8,8,-1,-12,83,76,69,30.69,30.29,30.03,10,3,0,22,12,26,0.20,8,Snow,43
2014-2-5,3,-8,-20,-8,-14,-24,91,77,62,30.79,30.65,30.41,10,8,2,8,3,9,0.01,5,Snow,323
2014-2-6,2,-3,-8,-4,-9,-15,79,69,59,30.63,30.38,30.08,10,6,2,8,2,9,0.03,7,Snow,75
2014-2-7,16,4,-9,6,-2,-13,87,77,66,30.21,30.06,29.88,10,9,2,17,3,25,T,4,Snow,76
2014-2-8,29,17,5,20,12,3,88,78,68,30.28,30.06,29.89,10,5,0,22,10,25,0.09,7,Fog-Snow,55
2014-2-9,12,9,6,7,4,2,88,81,73,30.38,30.21,30.06,10,4,1,14,9,15,0.26,8,Snow,99
2014-2-10,19,8,-4,10,3,-5,95,78,61,30.39,30.29,30.11,10,7,5,12,6,17,0.00,4,,63
2014-2-11,40,16,-8,28,9,-11,87,73,59,30.33,30.15,29.97,10,7,3,33,10,40,T,3,Snow,314
2014-2-12,45,28,11,31,22,10,92,73,53,30.23,29.97,29.77,10,10,10,25,13,35,0.00,2,,271
2014-2-13,52,39,25,34,31,22,85,68,50,29.89,29.80,29.64,10,8,2,29,12,55,0.06,4,Rain-Snow,298
2014-2-14,44,38,31,31,25,19,82,60,37,30.08,29.93,29.74,10,10,6,30,9,35,0.01,4,Snow,275
2014-2-15,49,41,32,34,30,25,89,64,39,30.08,29.96,29.69,10,10,10,29,10,36,T,7,Rain,315
2014-2-16,68,51,33,37,30,24,82,52,22,29.99,29.75,29.54,10,10,10,41,15,49,T,1,,148
2014-2-17,54,41,28,28,21,15,85,55,24,30.02,29.91,29.76,10,10,10,33,12,41,0.00,0,,285
2014-2-18,48,37,26,26,23,21,78,56,34,30.04,29.89,29.72,10,10,10,37,11,45,0.00,1,,318
2014-2-19,61,47,32,31,24,18,78,50,21,29.91,29.67,29.45,10,10,10,25,8,38,T,4,Rain,280
2014-2-20,39,31,22,22,13,3,84,54,24,29.95,29.88,29.74,10,10,10,37,18,49,0.00,2,,296
2014-2-21,44,36,27,28,20,12,78,57,35,29.97,29.86,29.77,10,9,2,26,13,35,T,6,Snow,302
2014-2-22,34,28,21,26,22,16,92,77,61,30.17,30.00,29.89,10,6,1,16,7,20,0.07,7,Snow,62
2014-2-23,21,19,17,17,15,14,92,85,77,30.29,30.17,30.04,10,4,0,20,13,23,0.15,8,Fog-Rain-Snow,109
2014-2-24,27,17,6,23,14,1,100,84,67,30.50,30.15,29.88,10,9,2,26,12,31,T,5,Snow,77
2014-2-25,16,3,-11,9,4,-14,88,78,67,30.61,30.37,30.08,10,6,1,16,7,19,0.10,5,Snow,7
2014-2-26,31,7,-17,16,-1,-20,91,70,49,30.46,30.27,30.11,10,10,9,21,8,25,0.00,0,,321
2014-2-27,31,17,2,24,13,-1,91,80,68,30.09,29.83,29.66,10,10,9,13,6,15,0.00,0,,112
2014-2-28,31,21,10,23,15,5,96,80,63,30.14,29.91,29.65,10,8,2,21,10,26,0.02,7,Snow,36